EW8903 Weather Reports


time (UTC)temp
C
wind
direction
speed
KPH
gust
KPH
rain 1hr
cm
rain 24hr
cm
rain mn
cm
humidity
%
barometer
mb
20260510220014 13 294 9.7 24.1 0.00 0.00 0.00 38 1017.4
20260510214507 13 304 12.9 27.4 0.00 0.00 0.00 35 1017.2
20260510213005 13 326 9.7 22.5 0.00 0.00 0.00 35 1017.0
20260510211505 13 279 14.5 30.6 0.00 0.00 0.00 37 1016.7
20260510210005 13 267 9.7 20.9 0.00 0.00 0.00 38 1016.7
20260510204500 13 283 4.8 19.3 0.00 0.00 0.00 38 1016.6
20260510203100 12 307 8.0 17.7 0.00 0.00 0.00 39 1016.8
20260510201600 12 289 6.4 19.3 0.00 0.00 0.00 37 1016.7
20260510200118 12 284 14.5 32.2 0.00 0.00 0.00 39 1016.9
20260510194528 12 293 17.7 32.2 0.00 0.00 0.00 36 1016.8
20260510193039 13 283 12.9 37.0 0.00 0.00 0.00 36 1016.7
20260510191608 13 271 12.9 20.9 0.00 0.00 0.00 35 1016.8
20260510190056 13 283 12.9 25.7 0.00 0.00 0.00 35 1016.8
20260510184552 13 294 8.0 25.7 0.00 0.00 0.00 36 1016.6
20260510183056 12 270 9.7 22.5 0.00 0.00 0.00 36 1016.6
20260510181551 13 271 11.3 24.1 0.00 0.00 0.00 34 1016.4
20260510180050 13 308 11.3 24.1 0.00 0.00 0.00 36 1016.1
20260510174548 13 276 8.0 20.9 0.00 0.00 0.00 36 1016.2
20260510173055 12 284 11.3 20.9 0.00 0.00 0.00 36 1016.2
20260510171553 12 305 16.1 30.6 0.00 0.00 0.00 34 1016.4
20260510170045 12 316 14.5 25.7 0.00 0.00 0.00 36 1016.4
20260510164546 12 321 6.4 19.3 0.00 0.00 0.00 36 1016.5
20260510163040 12 287 12.9 25.7 0.00 0.00 0.00 38 1016.5
20260510161536 12 308 11.3 20.9 0.00 0.00 0.00 36 1016.5
20260510160036 11 11 12.9 25.7 0.00 0.00 0.00 39 1016.4
20260510154539 11 316 12.9 33.8 0.00 0.00 0.00 40 1016.3
20260510153036 11 288 9.7 20.9 0.00 0.00 0.00 42 1016.3
20260510151526 10 301 8.0 29.0 0.00 0.00 0.00 43 1016.3
20260510151524 10 297 8.0 29.0 0.00 0.00 0.00 43 1016.3
20260510150021 10 301 11.3 27.4 0.00 0.00 0.00 42 1016.1
20260510144527 10 274 14.5 25.7 0.00 0.00 0.00 46 1016.0
20260510143013 10 284 9.7 20.9 0.00 0.00 0.00 46 1016.0
20260510141514 9 357 11.3 22.5 0.00 0.00 0.00 47 1016.0
20260510140010 9 295 9.7 19.3 0.00 0.00 0.00 50 1016.0
20260510134507 8 284 11.3 24.1 0.00 0.00 0.00 51 1016.0
20260510133116 8 297 9.7 24.1 0.00 0.00 0.00 52 1015.9
20260510131603 8 281 12.9 22.5 0.00 0.00 0.00 52 1015.8
20260510130054 8 301 6.4 16.1 0.00 0.00 0.00 56 1015.8
20260510124548 7 298 9.7 16.1 0.00 0.00 0.00 59 1015.8
20260510123056 7 280 6.4 12.9 0.00 0.03 0.00 63 1015.6
20260510121537 6 269 6.4 12.9 0.00 0.03 0.00 65 1015.4
20260510120034 6 276 4.8 12.9 0.00 0.03 0.00 68 1015.3
20260510114529 6 278 6.4 11.3 0.00 0.03 0.00 68 1015.1
20260510113024 6 306 4.8 8.0 0.00 0.03 0.00 68 1014.9
20260510111518 5 307 3.2 6.4 0.00 0.03 0.00 69 1014.6
20260510110013 5 307 3.2 8.0 0.00 0.03 0.00 72 1014.3
20260510104509 -17 0.0 0.0 0.00 0.03 0.00 1014.1
20260510103002 -17 0.0 0.0 0.00 0.03 0.00 1013.9
20260510101558 -17 0.0 0.0 0.00 0.03 0.00 1013.7
20260510100054 -17 0.0 0.0 0.00 0.03 0.00 1013.5
20260510094551 3 307 3.2 6.4 0.00 0.03 0.00 73 1013.7
20260510093044 4 307 1.6 4.8 0.00 0.03 0.03 72 1013.5
20260510091541 4 307 1.6 4.8 0.00 0.03 0.03 69 1013.2
20260510090037 5 307 3.2 8.0 0.00 0.03 0.03 68 1012.9
20260510084537 5 316 4.8 11.3 0.00 0.03 0.03 67 1012.8
20260510083003 5 318 6.4 12.9 0.00 0.03 0.03 65 1012.6
20260510081501 5 349 3.2 11.3 0.00 0.03 0.03 63 1012.4
20260510080027 5 352 6.4 19.3 0.00 0.03 0.03 62 1012.4
20260510074525 6 324 9.7 17.7 0.00 0.03 0.03 63 1012.3
20260510073027 6 333 9.7 17.7 0.00 0.03 0.03 64 1012.0
20260510071517 6 322 6.4 19.3 0.00 0.03 0.03 62 1011.7
20260510070016 6 330 8.0 12.9 0.00 0.03 0.03 64 1011.6
20260510064514 6 325 4.8 9.7 0.00 0.03 0.03 64 1011.3
20260510063010 6 330 6.4 14.5 0.00 0.03 0.03 63 1011.3
20260510061508 6 330 4.8 17.7 0.00 0.03 0.03 63 1011.2
20260510060006 6 352 4.8 14.5 0.00 0.03 0.03 61 1011.0
20260510054501 6 333 4.8 12.9 0.00 0.03 0.03 59 1011.1
20260510053056 7 353 8.0 17.7 0.00 0.03 0.03 58 1010.8
20260510051556 7 333 9.7 22.5 0.00 0.03 0.03 57 1010.5
20260510050049 7 334 6.4 17.7 0.00 0.03 0.03 54 1010.2
20260510044550 8 352 11.3 24.1 0.00 0.03 0.03 53 1010.0
20260510043041 8 352 17.7 30.6 0.00 0.03 0.03 60 1009.6
20260510041542 8 348 6.4 17.7 0.00 0.03 0.03 51 1009.4
20260510040036 9 342 12.9 22.5 0.00 0.03 0.03 50 1009.2
20260510034536 10 1 14.5 29.0 0.00 0.03 0.03 51 1009.0
20260510033031 10 11 12.9 32.2 0.00 0.03 0.03 51 1008.8
20260510031531 10 333 12.9 24.1 0.00 0.03 0.03 50 1008.3
20260510030022 10 353 9.7 20.9 0.00 0.03 0.03 53 1008.0
20260510024520 10 338 8.0 14.5 0.00 0.03 0.03 55 1007.7
20260510023016 10 330 4.8 12.9 0.00 0.03 0.03 55 1007.4
20260510021523 11 352 3.2 8.0 0.00 0.03 0.03 54 1007.0
20260510020010 11 356 3.2 9.7 0.00 0.03 0.03 53 1006.6
20260510014507 11 352 6.4 12.9 0.00 0.03 0.03 52 1006.3
20260510013003 12 332 8.0 12.9 0.00 0.03 0.03 52 1005.9
20260510011557 12 351 8.0 14.5 0.00 0.03 0.03 55 1005.5
20260510010056 12 350 8.0 19.3 0.00 0.03 0.03 53 1005.2
20260510004552 12 352 11.3 27.4 0.00 0.03 0.03 54 1004.9
20260510003052 13 6 12.9 30.6 0.00 0.03 0.03 53 1004.4
20260510001550 14 358 17.7 25.7 0.00 0.03 0.03 48 1004.1
20260510000043 15 334 11.3 30.6 0.00 0.03 0.03 43 1003.7
20260509234540 15 303 20.9 43.5 0.00 0.03 0.03 42 1003.3
20260509233040 15 332 14.5 35.4 0.00 0.03 0.03 47 1002.9
20260509231506 15 295 16.1 37.0 0.00 0.03 0.03 45 1002.7
20260509230003 16 290 25.7 43.5 0.00 0.03 0.03 42 1002.3
20260509224537 16 309 16.1 41.8 0.00 0.03 0.03 42 1002.0
20260509223032 17 303 22.5 38.6 0.00 0.03 0.03 38 1001.6
20260509221529 17 299 24.1 43.5 0.00 0.03 0.03 38 1001.2